Albert Lea, MN

3:29 PM CDT on April 19, 2018 (GMT -0500)
Albert Lea Municipal

Weather History for KAEL - December, 2012

Change the Weather History Date:

Wednesday, December 26, 2012

  Actual Average Record
Temperature  
Mean Temperature 12 °F -  
Max Temperature 19 °F 23 °F 48 °F (2011)
Min Temperature 6 °F 9 °F -13 °F (1996)
Degree Days  
Heating Degree Days 52    
Moisture  
Dew Point 8 °F    
Average Humidity 84    
Maximum Humidity 92    
Minimum Humidity 73    
Precipitation  
Precipitation 0.00 in - - ()
Sea Level Pressure  
Sea Level Pressure 30.21 in    
Wind  
Wind Speed 5 mph (North)    
Max Wind Speed 8 mph    
Max Gust Speed -    
Visibility 10 miles    
Events      
Averages and records for this station are not official NWS values.
T = Trace of Precipitation, MM = Missing Value Source: NWS Daily Summary

Daily Weather History Graph

Daily Weather History Graph

Search for Another Location

Airport or City:

Astronomy

Dec. 26, 2012 Rise Set
Actual Time 7:46 AM CST 4:42 PM CST
Civil Twilight 7:13 AM CST 5:15 PM CST
Nautical Twilight 6:36 AM CST 5:51 PM CST
Astronomical Twilight 6:02 AM CST 6:26 PM CST
Moon 3:37 PM CST (12/26) 6:09 AM CST (12/26)
Length of Visible Light 10h 02m
Length of Day
8h 56m
Waxing Gibbous, 97% of the Moon is Illuminated
Dec 26
Waxing Gibbous
Dec 28
Full
Jan 4
Last Quarter
Jan 11
New
Jan 18
First Quarter

Hourly Weather History & Observations

Time (CST) Temp. Windchill Dew Point Humidity Pressure Visibility Wind Dir Wind Speed Gust Speed Precip Events Conditions
10:00 AM - - - N/A% - - North - - N/A   Unknown
10:13 AM 8.6 °F -3.7 °F 3.2 °F 79% 30.26 in 10.0 mi North 8.1 mph - N/A   Unknown
10:33 AM 10.4 °F -0.4 °F 3.2 °F 73% 30.26 in 10.0 mi North 6.9 mph - N/A   Unknown
10:53 AM 10.4 °F 2.2 °F 5.0 °F 79% 30.26 in 10.0 mi North 4.6 mph - N/A   Unknown
11:13 AM 12.2 °F 2.9 °F 6.8 °F 79% 30.25 in 10.0 mi North 5.8 mph - N/A   Clear
11:33 AM 12.2 °F 2.9 °F 6.8 °F 79% 30.24 in 10.0 mi North 5.8 mph - N/A   Clear
11:53 AM 12.2 °F 4.3 °F 6.8 °F 79% 30.24 in 10.0 mi North 4.6 mph - N/A   Clear
12:33 PM 14.0 °F 8.2 °F 8.6 °F 79% 30.23 in 10.0 mi North 3.5 mph - N/A   Scattered Clouds
12:53 PM 15.8 °F 8.6 °F 8.6 °F 73% 30.22 in 10.0 mi North 4.6 mph - N/A   Scattered Clouds
1:12 PM 15.8 °F 6.1 °F 8.6 °F 73% 30.21 in 10.0 mi North 6.9 mph - N/A   Scattered Clouds
1:33 PM 15.8 °F 7.2 °F 10.4 °F 79% 30.21 in 10.0 mi North 5.8 mph - N/A   Scattered Clouds
1:53 PM 17.6 °F 8.2 °F 10.4 °F 73% 30.21 in 10.0 mi North 6.9 mph - N/A   Mostly Cloudy
2:12 PM 17.6 °F 8.2 °F 10.4 °F 73% 30.21 in 10.0 mi North 6.9 mph - N/A   Overcast
2:33 PM 17.6 °F 9.3 °F 12.2 °F 79% 30.20 in 10.0 mi North 5.8 mph - N/A   Overcast
2:53 PM 17.6 °F 8.2 °F 12.2 °F 79% 30.20 in 10.0 mi North 6.9 mph - N/A   Overcast
3:12 PM 19.4 °F 11.5 °F 12.2 °F 74% 30.21 in 10.0 mi North 5.8 mph - N/A   Overcast
3:33 PM 19.4 °F 11.5 °F 12.2 °F 74% 30.21 in 10.0 mi North 5.8 mph - N/A   Mostly Cloudy
3:53 PM 17.6 °F 9.3 °F 12.2 °F 79% 30.20 in 10.0 mi NNE 5.8 mph - N/A   Scattered Clouds
4:12 PM 17.6 °F 8.2 °F 12.2 °F 79% 30.20 in 10.0 mi NNE 6.9 mph - N/A   Clear
4:33 PM 15.8 °F 6.1 °F 10.4 °F 79% 30.20 in 10.0 mi NE 6.9 mph - N/A   Clear
4:53 PM 14.0 °F 5.1 °F 10.4 °F 86% 30.20 in 10.0 mi NNE 5.8 mph - N/A   Clear
5:12 PM 14.0 °F 5.1 °F 10.4 °F 86% 30.20 in 10.0 mi North 5.8 mph - N/A   Clear
5:33 PM 12.2 °F 6.1 °F 8.6 °F 85% 30.21 in 10.0 mi North 3.5 mph - N/A   Clear
6:13 PM 10.4 °F 0.8 °F 8.6 °F 92% 30.20 in 10.0 mi North 5.8 mph - N/A   Clear
6:32 PM 10.4 °F 4.0 °F 8.6 °F 92% 30.20 in 10.0 mi North 3.5 mph - N/A   Clear
6:53 PM 8.6 °F 0.1 °F 6.8 °F 92% 30.20 in 10.0 mi North 4.6 mph - N/A   Clear
7:13 PM 8.6 °F 2.0 °F 6.8 °F 92% 30.21 in 10.0 mi North 3.5 mph - N/A   Clear
7:32 PM 8.6 °F 0.1 °F 6.8 °F 92% 30.21 in 10.0 mi North 4.6 mph - N/A   Clear
7:53 PM 8.6 °F 2.0 °F 6.8 °F 92% 30.21 in 10.0 mi North 3.5 mph - N/A   Clear
8:13 PM 8.6 °F - 6.8 °F 92% 30.21 in 10.0 mi Calm Calm - N/A   Clear
8:32 PM 8.6 °F - 6.8 °F 92% 30.21 in 10.0 mi Calm Calm - N/A   Clear
8:53 PM 8.6 °F 2.0 °F 6.8 °F 92% 30.20 in 10.0 mi NNE 3.5 mph - N/A   Clear
9:13 PM 8.6 °F 0.1 °F 6.8 °F 92% 30.20 in 10.0 mi NNE 4.6 mph - N/A   Clear
9:32 PM 8.6 °F 2.0 °F 5.0 °F 85% 30.20 in 10.0 mi NNE 3.5 mph - N/A   Mostly Cloudy
9:53 PM 6.8 °F - 5.0 °F 92% 30.20 in 10.0 mi Calm Calm - N/A   Overcast
10:13 PM 6.8 °F - 5.0 °F 92% 30.19 in 10.0 mi Calm Calm - N/A   Scattered Clouds
10:32 PM 6.8 °F -0.1 °F 5.0 °F 92% 30.18 in 10.0 mi NE 3.5 mph - N/A   Clear
10:53 PM 8.6 °F 2.0 °F 5.0 °F 85% 30.18 in 10.0 mi NE 3.5 mph - N/A   Clear
11:13 PM 8.6 °F - 5.0 °F 85% 30.19 in 10.0 mi Calm Calm - N/A   Clear
11:32 PM 8.6 °F - 5.0 °F 85% 30.19 in 10.0 mi Calm Calm - N/A   Clear
11:53 PM 6.8 °F - 5.0 °F 92% 30.19 in 10.0 mi Calm Calm - N/A   Clear